Flag for Montenegro Weather past 2 weeks in Podgorica, Montenegro

Now
70 °F

Scattered clouds.


Feels Like: 70 °F
Forecast: 51 / 82 °F
Wind: 2 mph from North

Location: Podgorica Titograd

Current Time: May 3, 2015 at 12:51:17 PM

Latest Report: May 3, 2015 at 12:00 PM


Visibility: N/A

Pressure: 29.98 "Hg

Humidity: 57%

Dew point: 54 °F

Location of PodgoricaLocation

Historic Weather in Podgorica — Graph

°F

Podgorica temperature yesterday

Maximum temperature yesterday: 63 °F (at 5:00 PM)
Minimum temperature yesterday: 55 °F (at 10:30 PM)
Average temperature yesterday: 60 °F

Past Weeks' High & Low Weather Summary

 TemperatureHumidityPressure
High75 °F (Apr 22, 3:00 PM)100% (Apr 24, 5:30 PM)30.15 "Hg (Apr 24, 5:30 PM)
Low45 °F (Apr 21, 3:30 AM)16% (Apr 21, 4:00 PM)29.71 "Hg (Apr 28, 6:30 AM)
Average60 °F62%30.00 "Hg
* Reported Apr 18 12:00 Noon — May 3 12:00 Noon, Podgorica, Weather by CustomWeather, © 2015

Note: Actual official high and low records may vary slightly from our data, if they occured in-between our weather recording intervals... More about our weather records

Advertising

Podgorica weather history for previous 24 hours

 ConditionsComfort  
Time TempWeatherWind HumidityBarometerVisibility
12:00 PM
Sun, May 3
70 °FScattered clouds.2 mph57%29.98 "HgN/A
11:30 AM68 °FPartly sunny.2 mph56%30.01 "HgN/A
11:00 AM68 °FPartly sunny.1 mph56%30.01 "HgN/A
10:30 AM66 °FPassing clouds.2 mph60%30.01 "HgN/A
10:00 AM66 °FPassing clouds.2 mph60%30.01 "HgN/A
9:30 AM64 °FPassing clouds.2 mph64%30.01 "HgN/A
9:00 AM63 °FPassing clouds.3 mph68%30.01 "HgN/A
8:30 AM61 °FPassing clouds.3 mph68%30.01 "HgN/A
8:00 AM61 °FPassing clouds.3 mph77%30.01 "HgN/A
7:30 AM57 °FPassing clouds.5 mph82%30.01 "HgN/A
7:00 AM55 °FPassing clouds.6 mph82%30.01 "HgN/A
6:30 AM54 °FPassing clouds.3 mph88%30.01 "HgN/A
6:00 AM54 °FPassing clouds.5 mph88%30.01 "HgN/A
5:30 AM52 °FPassing clouds.3 mph94%29.98 "HgN/A
4:30 AM54 °FPassing clouds.8 mph94%29.98 "HgN/A
4:00 AM54 °FPassing clouds.6 mph94%29.98 "HgN/A
3:30 AM54 °FPassing clouds.3 mph100%29.98 "HgN/A
3:00 AM54 °FPassing clouds.2 mph100%29.98 "HgN/A
2:30 AM54 °FPassing clouds.6 mph94%29.98 "HgN/A
2:00 AM55 °FPassing clouds.8 mph94%29.98 "HgN/A
1:30 AM55 °FPassing clouds.7 mph94%30.01 "HgN/A
1:00 AM55 °FPassing clouds.6 mph94%30.01 "HgN/A
12:30 AM55 °FPassing clouds.6 mph94%30.01 "HgN/A
12:00 AM55 °FPassing clouds.5 mph100%30.01 "Hg5 mi
11:00 PM
Sat, May 2
55 °FPassing clouds.5 mph100%30.01 "HgN/A
10:30 PM55 °FPassing clouds.6 mph100%30.01 "HgN/A
10:00 PM57 °FPassing clouds.1 mph94%29.98 "HgN/A
9:30 PM57 °FPassing clouds.3 mph94%29.98 "HgN/A
9:00 PM59 °FPassing clouds.5 mph94%29.98 "HgN/A
8:30 PM61 °FScattered clouds.3 mph88%29.98 "HgN/A
8:00 PM61 °FPartly sunny.3 mph88%29.98 "HgN/A
7:30 PM61 °FPartly sunny.1 mph88%29.98 "HgN/A
7:00 PM63 °FPartly sunny.No wind73%29.95 "HgN/A
6:30 PM63 °FPartly sunny.2 mph73%29.95 "HgN/A
6:00 PM63 °FPartly sunny.5 mph73%29.95 "HgN/A
5:30 PM63 °FMore clouds than sun.5 mph77%29.95 "HgN/A
5:00 PM63 °FMore clouds than sun.5 mph77%29.95 "HgN/A
4:30 PM61 °FMore clouds than sun.6 mph83%29.95 "HgN/A
4:00 PM61 °FMore clouds than sun.5 mph83%29.95 "HgN/A
3:30 PM61 °FMore clouds than sun.6 mph83%29.95 "HgN/A
3:00 PM61 °FLight rain. More clouds than sun.6 mph83%29.95 "HgN/A
2:30 PM61 °FMore clouds than sun.5 mph83%29.95 "HgN/A
2:00 PM61 °FMore clouds than sun.6 mph83%29.95 "HgN/A
1:30 PM59 °FMore clouds than sun.6 mph88%29.95 "HgN/A
1:00 PM61 °FMore clouds than sun.6 mph83%29.95 "HgN/A
12:30 PM61 °FMore clouds than sun.5 mph88%29.95 "HgN/A
12:00 PM61 °FMore clouds than sun.6 mph88%29.95 "HgN/A
Weather by CustomWeather, © 2015

See weather overviewHow to use our weather pages